Weather History for KSDM - June, 2013

Change the Weather History Date:

Thursday, June 13, 2013

  Actual Average Record
Temperature  
Mean Temperature 66 °F -  
Max Temperature 73 °F 71 °F 83 °F (1956)
Min Temperature 60 °F 54 °F 56 °F (1955)
Cooling Degree Days 1    
Growing Degree Days 16 (Base 50)    
Moisture  
Dew Point 56 °F    
Average Humidity 75    
Maximum Humidity 90    
Minimum Humidity 57    
Precipitation  
Precipitation 0.00 in - - ()
Sea Level Pressure  
Sea Level Pressure 29.97 in    
Wind  
Wind Speed 3 mph (WNW)    
Max Wind Speed 10 mph    
Max Gust Speed -    
Visibility 10 miles    
Events      
Averages and records for this station are not official NWS values.
T = Trace of Precipitation, MM = Missing Value Source: NWS Daily Summary

Daily Weather History Graph

Daily Weather History Graph

Search for Another Location

Airport or City:

Trip Planner

Search our weather history database for the weather conditions in past years. The results will help you decide how hot, cold, wet, or windy it might be!

Date:

Astronomy

Jun. 13, 2013 Rise Set
Actual Time 5:39 AM PDT 7:56 PM PDT
Civil Twilight 5:11 AM PDT 8:24 PM PDT
Nautical Twilight 4:36 AM PDT 8:59 PM PDT
Astronomical Twilight 3:58 AM PDT 9:37 PM PDT
Moon 10:08 AM PDT (6/13) 11:19 PM PDT (6/13)
Length of Visible Light 15h 13m
Length of Day
14h 16m
Waxing Crescent, 22% of the Moon is Illuminated
Jun 13
Waxing Crescent
Jun 16
First Quarter
Jun 23
Full
Jun 29
Last Quarter
Jul 8
New

Hourly Weather History & Observations

Time (PDT) Temp. Dew Point Humidity Pressure Visibility Wind Dir Wind Speed Gust Speed Precip Events Conditions
1:53 AM 61.0 °F 55.9 °F 83% 29.97 in 10.0 mi Calm Calm - N/A   Overcast
2:53 AM 61.0 °F 55.9 °F 83% 29.97 in 10.0 mi Calm Calm - N/A   Overcast
3:53 AM 61.0 °F 57.0 °F 87% 29.97 in 10.0 mi Calm Calm - N/A   Overcast
4:53 AM 61.0 °F 55.9 °F 83% 29.97 in 10.0 mi NE 3.5 mph - N/A   Overcast
5:53 AM 61.0 °F 55.9 °F 83% 29.98 in 10.0 mi Calm Calm - N/A   Overcast
6:53 AM 61.0 °F 57.0 °F 87% 29.99 in 10.0 mi Calm Calm - N/A   Overcast
7:53 AM 62.1 °F 57.0 °F 84% 30.00 in 10.0 mi Calm Calm - N/A   Overcast
8:53 AM 64.0 °F 57.0 °F 78% 30.01 in 10.0 mi Calm Calm - N/A   Overcast
9:09 AM 64.4 °F 57.2 °F 77% 30.02 in 10.0 mi Variable 3.5 mph - N/A   Overcast
9:53 AM 66.9 °F 55.9 °F 68% 30.01 in 10.0 mi West 6.9 mph - N/A   Mostly Cloudy
10:07 AM 68.0 °F 57.2 °F 68% 30.02 in 10.0 mi West 4.6 mph - N/A   Scattered Clouds
10:53 AM 69.1 °F 57.0 °F 65% 30.01 in 10.0 mi West 8.1 mph - N/A   Clear
11:53 AM 71.1 °F 55.9 °F 59% 30.00 in 10.0 mi West 8.1 mph - N/A   Clear
12:53 PM 71.1 °F 55.9 °F 59% 29.99 in 10.0 mi WNW 10.4 mph - N/A   Clear
1:53 PM 72.0 °F 55.9 °F 57% 29.97 in 10.0 mi West 9.2 mph - N/A   Clear
2:53 PM 70.0 °F 55.9 °F 61% 29.96 in 10.0 mi WNW 8.1 mph - N/A   Clear
3:53 PM 70.0 °F 55.9 °F 61% 29.94 in 10.0 mi West 8.1 mph - N/A   Clear
4:53 PM 69.1 °F 55.0 °F 61% 29.93 in 10.0 mi West 9.2 mph - N/A   Clear
5:53 PM 68.0 °F 55.0 °F 63% 29.91 in 10.0 mi Variable 6.9 mph - N/A   Clear
6:53 PM 64.9 °F 55.0 °F 70% 29.92 in 10.0 mi WNW 4.6 mph - N/A   Clear
7:53 PM 61.0 °F 55.0 °F 81% 29.93 in 10.0 mi West 6.9 mph - N/A   Clear
8:53 PM 60.1 °F 55.9 °F 86% 29.94 in 10.0 mi West 4.6 mph - N/A   Partly Cloudy
9:08 PM 60.8 °F 57.2 °F 88% 29.95 in 10.0 mi NW 3.5 mph - N/A   Mostly Cloudy
9:53 PM 60.1 °F 57.0 °F 90% 29.95 in 10.0 mi West 3.5 mph - N/A   Overcast
10:53 PM 61.0 °F 57.0 °F 87% 29.94 in 10.0 mi Calm Calm - N/A   Overcast
11:53 PM 61.0 °F 57.0 °F 87% 29.94 in 10.0 mi Calm Calm - N/A   Overcast